When you browse on this site, cookies collect data to enhance your experience and personalize the content and advertising you see.
Visit our Privacy Policy to learn more. By continuing to use the site, you agree to this use of cookies and data.
  • In Austria
  • List of Countries
  • For 7 days
  • Water Temperature
  • Satellite Maps
  • Weather Map
  • News
  • Weather Widgets
  • user-avatar
    Login

    Hourly Weather Portalegre

    Today, 21 March, Thursday

    Time Temperature Precipitation Wind Pressure Humidity
    00:00 +6°C° 0 mm 2 mps 728 mmHg 63%
    01:00 +5°C° 0 mm 2 mps 728 mmHg 64%
    02:00 +5°C° 0 mm 2 mps 728 mmHg 65%
    03:00 +5°C° 0 mm 2 mps 728 mmHg 66%
    04:00 +4°C° 0 mm 2 mps 728 mmHg 67%
    05:00 +4°C° 0 mm 2 mps 728 mmHg 69%
    06:00 +3°C° 0 mm 2 mps 728 mmHg 69%
    07:00 +5°C° 0 mm 2 mps 729 mmHg 64%
    08:00 +7°C° 0 mm 2 mps 729 mmHg 60%
    09:00 +9°C° 0 mm 3 mps 729 mmHg 55%
    10:00 +11°C° 0 mm 3 mps 729 mmHg 51%
    11:00 +13°C° 0 mm 3 mps 729 mmHg 46%
    12:00 +16°C° 0 mm 3 mps 729 mmHg 41%
    13:00 +16°C° 0 mm 3 mps 729 mmHg 40%
    14:00 +17°C° 0 mm 2 mps 729 mmHg 39%
    15:00 +17°C° 0 mm 2 mps 728 mmHg 37%
    16:00 +16°C° 0 mm 2 mps 728 mmHg 44%
    17:00 +15°C° 0 mm 1 mps 728 mmHg 52%
    18:00 +14°C° 0 mm 1 mps 728 mmHg 59%
    19:00 +12°C° 0 mm 1 mps 728 mmHg 59%
    20:00 +10°C° 0 mm 1 mps 728 mmHg 60%
    21:00 +8°C° 0 mm 1 mps 728 mmHg 61%
    22:00 +8°C° 0 mm 1 mps 728 mmHg 61%
    23:00 +8°C° 0 mm 1 mps 728 mmHg 62%

    Tomorrow, 22 March, Friday

    Time Temperature Precipitation Wind Pressure Humidity
    00:00 +7°C° 0 mm 1 mps 728 mmHg 63%
    01:00 +7°C° 0 mm 1 mps 728 mmHg 63%
    02:00 +5°C° 0 mm 2 mps 728 mmHg 63%
    03:00 +5°C° 0 mm 2 mps 728 mmHg 64%
    04:00 +5°C° 0 mm 2 mps 728 mmHg 62%
    05:00 +4°C° 0 mm 2 mps 728 mmHg 61%
    06:00 +4°C° 0 mm 2 mps 728 mmHg 60%
    07:00 +5°C° 0 mm 3 mps 729 mmHg 55%
    08:00 +8°C° 0 mm 3 mps 729 mmHg 51%
    09:00 +9°C° 0 mm 3 mps 729 mmHg 47%
    10:00 +11°C° 0 mm 4 mps 729 mmHg 44%
    11:00 +14°C° 0 mm 4 mps 730 mmHg 42%
    12:00 +17°C° 0 mm 4 mps 730 mmHg 39%
    13:00 +17°C° 0 mm 4 mps 729 mmHg 39%
    14:00 +18°C° 0 mm 4 mps 729 mmHg 39%
    15:00 +18°C° 0 mm 4 mps 728 mmHg 39%
    16:00 +17°C° 0 mm 3 mps 728 mmHg 46%
    17:00 +16°C° 0 mm 2 mps 728 mmHg 53%
    18:00 +15°C° 0 mm 2 mps 727 mmHg 60%
    19:00 +13°C° 0 mm 2 mps 727 mmHg 60%
    20:00 +12°C° 0 mm 2 mps 728 mmHg 60%
    21:00 +9°C° 0 mm 2 mps 728 mmHg 59%
    22:00 +9°C° 0 mm 2 mps 728 mmHg 57%
    23:00 +9°C° 0 mm 3 mps 728 mmHg 56%

    Day after tomorrow, 23 March, Saturday

    Time Temperature Precipitation Wind Pressure Humidity
    00:00 +8°C° 0 mm 3 mps 728 mmHg 54%
    01:00 +8°C° 0 mm 3 mps 728 mmHg 56%
    02:00 +8°C° 0 mm 3 mps 728 mmHg 58%
    03:00 +7°C° 0 mm 3 mps 727 mmHg 61%
    04:00 +7°C° 0 mm 3 mps 727 mmHg 63%
    05:00 +7°C° 0 mm 3 mps 727 mmHg 65%
    06:00 +7°C° 0 mm 3 mps 727 mmHg 67%
    07:00 +8°C° 0 mm 4 mps 727 mmHg 64%
    08:00 +10°C° 0 mm 4 mps 727 mmHg 61%
    09:00 +12°C° 0 mm 4 mps 728 mmHg 59%
    10:00 +14°C° 0 mm 5 mps 727 mmHg 53%
    11:00 +16°C° 0 mm 5 mps 727 mmHg 48%
    12:00 +19°C° 0 mm 5 mps 727 mmHg 43%
    13:00 +19°C° 0 mm 5 mps 726 mmHg 42%
    14:00 +20°C° 0 mm 5 mps 726 mmHg 40%
    15:00 +21°C° 0 mm 5 mps 725 mmHg 38%
    16:00 +19°C° 0 mm 4 mps 725 mmHg 45%
    17:00 +18°C° 0 mm 3 mps 725 mmHg 52%
    18:00 +17°C° 0 mm 2 mps 724 mmHg 59%
    19:00 +15°C° 0 mm 2 mps 725 mmHg 59%
    20:00 +13°C° 0 mm 3 mps 725 mmHg 59%
    21:00 +12°C° 0 mm 3 mps 725 mmHg 59%
    22:00 +11°C° 0 mm 3 mps 725 mmHg 60%
    23:00 +11°C° 0 mm 3 mps 725 mmHg 60%

    24 March, Sunday

    Time Temperature Precipitation Wind Pressure Humidity
    00:00 +10°C° 0 mm 3 mps 725 mmHg 61%
    01:00 +10°C° 0 mm 3 mps 725 mmHg 62%
    02:00 +10°C° 0 mm 4 mps 725 mmHg 62%
    03:00 +10°C° 0 mm 4 mps 725 mmHg 63%
    04:00 +8°C° 0 mm 4 mps 725 mmHg 64%
    05:00 +8°C° 0 mm 4 mps 725 mmHg 64%
    06:00 +8°C° 0 mm 4 mps 725 mmHg 65%
    07:00 +9°C° 0 mm 5 mps 725 mmHg 62%
    08:00 +12°C° 0 mm 5 mps 725 mmHg 59%
    09:00 +13°C° 0 mm 6 mps 726 mmHg 57%
    10:00 +15°C° 0 mm 5 mps 726 mmHg 53%
    11:00 +16°C° 0 mm 5 mps 726 mmHg 49%
    12:00 +19°C° 0 mm 5 mps 726 mmHg 45%
    13:00 +20°C° 0 mm 5 mps 726 mmHg 44%
    14:00 +21°C° 0 mm 4 mps 725 mmHg 42%
    15:00 +21°C° 0 mm 4 mps 725 mmHg 40%
    16:00 +20°C° 0 mm 3 mps 724 mmHg 47%
    17:00 +19°C° 0 mm 2 mps 724 mmHg 53%
    18:00 +17°C° 0 mm 2 mps 724 mmHg 59%
    19:00 +17°C° 0 mm 2 mps 724 mmHg 54%
    20:00 +16°C° 0 mm 3 mps 725 mmHg 49%
    21:00 +14°C° 0 mm 4 mps 725 mmHg 44%
    22:00 +13°C° 0 mm 3 mps 725 mmHg 47%
    23:00 +13°C° 0 mm 2 mps 724 mmHg 51%

    25 March, Monday

    Time Temperature Precipitation Wind Pressure Humidity
    00:00 +12°C° 0 mm 1 mps 724 mmHg 54%
    01:00 +10°C° 0 mm 2 mps 724 mmHg 56%
    02:00 +10°C° 0 mm 2 mps 724 mmHg 57%
    03:00 +9°C° 0 mm 2 mps 724 mmHg 59%
    04:00 +9°C° 0 mm 2 mps 724 mmHg 56%
    05:00 +9°C° 0 mm 3 mps 724 mmHg 54%
    06:00 +9°C° 0 mm 3 mps 724 mmHg 52%
    07:00 +10°C° 0 mm 3 mps 724 mmHg 51%
    08:00 +11°C° 0 mm 4 mps 724 mmHg 49%
    09:00 +12°C° 0 mm 4 mps 725 mmHg 48%
    10:00 +14°C° 0 mm 4 mps 725 mmHg 46%
    11:00 +16°C° 0 mm 5 mps 724 mmHg 45%
    12:00 +19°C° 0 mm 5 mps 724 mmHg 43%
    13:00 +20°C° 0 mm 5 mps 724 mmHg 43%
    14:00 +21°C° 0 mm 4 mps 723 mmHg 43%
    15:00 +21°C° 0 mm 4 mps 723 mmHg 43%
    16:00 +20°C° 0 mm 3 mps 723 mmHg 50%
    17:00 +19°C° 0 mm 2 mps 722 mmHg 56%
    18:00 +18°C° 0 mm 2 mps 722 mmHg 63%
    19:00 +16°C° 0 mm 1 mps 722 mmHg 64%
    20:00 +15°C° 0 mm 1 mps 723 mmHg 65%
    21:00 +13°C° 0 mm 1 mps 723 mmHg 67%
    22:00 +13°C° 0 mm 1 mps 723 mmHg 65%
    23:00 +12°C° 0 mm 2 mps 723 mmHg 64%

    26 March, Tuesday

    Time Temperature Precipitation Wind Pressure Humidity
    00:00 +12°C° 0 mm 2 mps 723 mmHg 63%
    01:00 +12°C° 0 mm 2 mps 723 mmHg 61%
    02:00 +10°C° 0 mm 2 mps 723 mmHg 60%
    03:00 +10°C° 0 mm 2 mps 723 mmHg 59%
    04:00 +10°C° 0 mm 2 mps 723 mmHg 60%
    05:00 +10°C° 0 mm 3 mps 723 mmHg 62%
    06:00 +10°C° 0 mm 3 mps 723 mmHg 64%
    07:00 +11°C° 0 mm 3 mps 723 mmHg 61%
    08:00 +12°C° 0 mm 4 mps 723 mmHg 58%
    09:00 +14°C° 0 mm 4 mps 724 mmHg 55%
    10:00 +17°C° 0 mm 4 mps 724 mmHg 51%
    11:00 +19°C° 0 mm 4 mps 724 mmHg 47%
    12:00 +20°C° 0 mm 4 mps 724 mmHg 44%
    13:00 +21°C° 0 mm 4 mps 723 mmHg 43%
    14:00 +21°C° 0 mm 4 mps 722 mmHg 43%
    15:00 +22°C° 0 mm 4 mps 722 mmHg 42%
    16:00 +21°C° 0 mm 3 mps 722 mmHg 47%
    17:00 +20°C° 0 mm 3 mps 721 mmHg 52%
    18:00 +18°C° 0 mm 2 mps 721 mmHg 57%
    19:00 +17°C° 0 mm 3 mps 721 mmHg 51%
    20:00 +16°C° 0 mm 3 mps 722 mmHg 46%
    21:00 +16°C° 0 mm 3 mps 722 mmHg 41%
    22:00 +14°C° 0 mm 3 mps 722 mmHg 41%
    23:00 +13°C° 0 mm 3 mps 721 mmHg 42%
    Show more